EN

Hourly Weather Bolshie Elbuzdovskie

Today, 30 October, Friday

Time Temperature Precipitation Wind Pressure Humidity
00:00 +16°C° 0 mm 3 mps 756 mmHg 83%
01:00 +16°C° 0.1 mm 3 mps 756 mmHg 85%
02:00 +16°C° 0.1 mm 3 mps 756 mmHg 86%
03:00 +16°C° 0.1 mm 2 mps 756 mmHg 87%
04:00 +16°C° 0.1 mm 3 mps 756 mmHg 87%
05:00 +14°C° 0.1 mm 3 mps 756 mmHg 87%
06:00 +14°C° 0.1 mm 4 mps 756 mmHg 87%
07:00 +15°C° 0.1 mm 4 mps 756 mmHg 85%
08:00 +17°C° 0.1 mm 4 mps 756 mmHg 82%
09:00 +17°C° 0.1 mm 4 mps 757 mmHg 79%
10:00 +19°C° 0 mm 4 mps 757 mmHg 72%
11:00 +20°C° 0 mm 4 mps 756 mmHg 65%
12:00 +21°C° 0 mm 4 mps 756 mmHg 59%
13:00 +22°C° 0 mm 4 mps 756 mmHg 57%
14:00 +22°C° 0 mm 4 mps 756 mmHg 56%
15:00 +22°C° 0 mm 4 mps 756 mmHg 55%
16:00 +21°C° 0.1 mm 3 mps 756 mmHg 60%
17:00 +20°C° 0.1 mm 2 mps 756 mmHg 64%
18:00 +20°C° 0.1 mm 1 mps 756 mmHg 69%
19:00 +19°C° 0.2 mm 1 mps 756 mmHg 72%
20:00 +19°C° 0.2 mm 1 mps 756 mmHg 75%
21:00 +18°C° 0.2 mm 1 mps 756 mmHg 77%
22:00 +18°C° 0 mm 1 mps 756 mmHg 79%
23:00 +18°C° 0 mm 1 mps 756 mmHg 80%

Tomorrow, 31 October, Saturday

Time Temperature Precipitation Wind Pressure Humidity
00:00 +16°C° 0 mm 2 mps 756 mmHg 81%
01:00 +16°C° 0 mm 1 mps 756 mmHg 84%
02:00 +15°C° 0 mm 1 mps 756 mmHg 87%
03:00 +15°C° 0 mm 1 mps 756 mmHg 89%
04:00 +15°C° 0 mm 1 mps 755 mmHg 90%
05:00 +14°C° 0 mm 1 mps 755 mmHg 90%
06:00 +13°C° 0 mm 0 mps 755 mmHg 91%
07:00 +15°C° 0 mm 1 mps 755 mmHg 88%
08:00 +15°C° 0 mm 1 mps 755 mmHg 85%
09:00 +16°C° 0 mm 1 mps 755 mmHg 82%
10:00 +16°C° 0.3 mm 1 mps 755 mmHg 82%
11:00 +18°C° 0.3 mm 1 mps 755 mmHg 82%
12:00 +17°C° 0.3 mm 2 mps 755 mmHg 81%
13:00 +19°C° 0 mm 1 mps 754 mmHg 77%
14:00 +19°C° 0 mm 1 mps 754 mmHg 72%
15:00 +20°C° 0 mm 1 mps 754 mmHg 67%
16:00 +19°C° 0.1 mm 1 mps 754 mmHg 71%
17:00 +19°C° 0.1 mm 1 mps 754 mmHg 74%
18:00 +18°C° 0.1 mm 1 mps 754 mmHg 78%
19:00 +17°C° 0.6 mm 3 mps 754 mmHg 80%
20:00 +17°C° 0.6 mm 4 mps 754 mmHg 82%
21:00 +15°C° 0.6 mm 5 mps 754 mmHg 84%
22:00 +15°C° 0.1 mm 5 mps 755 mmHg 86%
23:00 +15°C° 0.1 mm 4 mps 755 mmHg 87%

Day after tomorrow, 1 November, Sunday

Time Temperature Precipitation Wind Pressure Humidity
00:00 +14°C° 0.1 mm 3 mps 755 mmHg 88%
01:00 +14°C° 0 mm 3 mps 755 mmHg 89%
02:00 +13°C° 0 mm 3 mps 755 mmHg 90%
03:00 +14°C° 0 mm 2 mps 755 mmHg 91%
04:00 +13°C° 0 mm 2 mps 756 mmHg 92%
05:00 +13°C° 0 mm 1 mps 756 mmHg 93%
06:00 +13°C° 0 mm 1 mps 756 mmHg 94%
07:00 +13°C° 0 mm 1 mps 756 mmHg 91%
08:00 +14°C° 0 mm 2 mps 757 mmHg 88%
09:00 +14°C° 0 mm 3 mps 757 mmHg 85%
10:00 +16°C° 0 mm 3 mps 757 mmHg 78%
11:00 +18°C° 0 mm 4 mps 757 mmHg 72%
12:00 +19°C° 0 mm 4 mps 757 mmHg 65%
13:00 +20°C° 0.2 mm 4 mps 756 mmHg 62%
14:00 +20°C° 0.2 mm 4 mps 756 mmHg 59%
15:00 +20°C° 0.2 mm 4 mps 756 mmHg 56%
16:00 +19°C° 0.2 mm 4 mps 756 mmHg 63%
17:00 +18°C° 0.2 mm 4 mps 756 mmHg 69%
18:00 +17°C° 0.2 mm 4 mps 756 mmHg 76%
19:00 +15°C° 0.7 mm 4 mps 757 mmHg 80%
20:00 +16°C° 0.7 mm 3 mps 757 mmHg 84%
21:00 +14°C° 0.7 mm 3 mps 757 mmHg 88%
22:00 +14°C° 1.6 mm 3 mps 757 mmHg 87%
23:00 +13°C° 1.6 mm 3 mps 758 mmHg 87%

2 November, Monday

Time Temperature Precipitation Wind Pressure Humidity
00:00 +13°C° 1.6 mm 3 mps 758 mmHg 87%
01:00 +12°C° 0.1 mm 3 mps 758 mmHg 86%
02:00 +12°C° 0.1 mm 4 mps 758 mmHg 85%
03:00 +12°C° 0.1 mm 4 mps 759 mmHg 85%
04:00 +12°C° 0.1 mm 4 mps 758 mmHg 83%
05:00 +12°C° 0.1 mm 5 mps 758 mmHg 81%
06:00 +11°C° 0.1 mm 6 mps 758 mmHg 79%
07:00 +13°C° 0 mm 6 mps 758 mmHg 76%
08:00 +12°C° 0 mm 7 mps 758 mmHg 73%
09:00 +12°C° 0 mm 8 mps 758 mmHg 70%
10:00 +13°C° 0 mm 8 mps 759 mmHg 65%
11:00 +15°C° 0 mm 9 mps 759 mmHg 59%
12:00 +16°C° 0 mm 9 mps 759 mmHg 53%
13:00 +16°C° 0.1 mm 8 mps 759 mmHg 55%
14:00 +16°C° 0.1 mm 8 mps 760 mmHg 57%
15:00 +16°C° 0.1 mm 7 mps 760 mmHg 59%
16:00 +15°C° 0 mm 5 mps 760 mmHg 64%
17:00 +14°C° 0 mm 4 mps 761 mmHg 69%
18:00 +13°C° 0 mm 3 mps 761 mmHg 74%
19:00 +13°C° 0 mm 2 mps 762 mmHg 77%
20:00 +13°C° 0 mm 2 mps 762 mmHg 79%
21:00 +12°C° 0 mm 2 mps 762 mmHg 82%
22:00 +12°C° 0 mm 1 mps 763 mmHg 84%
23:00 +12°C° 0 mm 1 mps 763 mmHg 86%

3 November, Tuesday

Time Temperature Precipitation Wind Pressure Humidity
00:00 +12°C° 0 mm 1 mps 763 mmHg 87%
01:00 +12°C° 0 mm 1 mps 763 mmHg 87%
02:00 +12°C° 0 mm 1 mps 763 mmHg 87%
03:00 +12°C° 0 mm 1 mps 763 mmHg 87%
04:00 +12°C° 0 mm 1 mps 763 mmHg 87%
05:00 +10°C° 0 mm 2 mps 763 mmHg 87%
06:00 +10°C° 0 mm 2 mps 763 mmHg 87%
07:00 +12°C° 0.2 mm 2 mps 764 mmHg 86%
08:00 +11°C° 0.2 mm 3 mps 764 mmHg 86%
09:00 +12°C° 0.2 mm 3 mps 764 mmHg 85%
10:00 +12°C° 0.3 mm 3 mps 764 mmHg 84%
11:00 +13°C° 0.3 mm 3 mps 764 mmHg 82%
12:00 +13°C° 0.3 mm 4 mps 764 mmHg 81%
13:00 +14°C° 0.1 mm 4 mps 764 mmHg 79%
14:00 +14°C° 0.1 mm 4 mps 764 mmHg 77%
15:00 +14°C° 0.1 mm 4 mps 764 mmHg 75%
16:00 +14°C° 0 mm 4 mps 764 mmHg 77%
17:00 +13°C° 0 mm 3 mps 764 mmHg 80%
18:00 +13°C° 0 mm 3 mps 764 mmHg 82%
19:00 +13°C° 0 mm 3 mps 764 mmHg 81%
20:00 +13°C° 0 mm 4 mps 764 mmHg 80%
21:00 +13°C° 0 mm 4 mps 764 mmHg 79%
22:00 +13°C° 0 mm 4 mps 764 mmHg 79%
23:00 +13°C° 0 mm 4 mps 764 mmHg 79%

4 November, Wednesday

Time Temperature Precipitation Wind Pressure Humidity
00:00 +12°C° 0 mm 4 mps 764 mmHg 79%
01:00 +12°C° 0 mm 4 mps 764 mmHg 76%
02:00 +11°C° 0 mm 4 mps 764 mmHg 72%
03:00 +11°C° 0 mm 4 mps 764 mmHg 69%
04:00 +10°C° 0 mm 4 mps 764 mmHg 68%
05:00 +10°C° 0 mm 4 mps 764 mmHg 67%
06:00 +8°C° 0 mm 4 mps 763 mmHg 66%
07:00 +8°C° 0 mm 4 mps 764 mmHg 64%
08:00 +10°C° 0 mm 4 mps 764 mmHg 62%
09:00 +9°C° 0 mm 5 mps 764 mmHg 60%
10:00 +11°C° 0 mm 4 mps 764 mmHg 56%
11:00 +12°C° 0 mm 4 mps 763 mmHg 53%
12:00 +13°C° 0 mm 4 mps 763 mmHg 49%
13:00 +14°C° 0 mm 4 mps 763 mmHg 48%
14:00 +14°C° 0 mm 4 mps 763 mmHg 47%
15:00 +14°C° 0 mm 4 mps 762 mmHg 47%
16:00 +13°C° 0 mm 4 mps 762 mmHg 50%
17:00 +12°C° 0 mm 3 mps 762 mmHg 53%
18:00 +11°C° 0 mm 3 mps 762 mmHg 56%
19:00 +11°C° 0 mm 3 mps 762 mmHg 58%
20:00 +11°C° 0 mm 3 mps 762 mmHg 59%
21:00 +10°C° 0 mm 3 mps 762 mmHg 61%
22:00 +10°C° 0 mm 3 mps 762 mmHg 62%
23:00 +10°C° 0 mm 3 mps 762 mmHg 62%
Show more